Location: Colonial Woods South
(40.1818°N, 76.8289°W)
Time: 03:59:26
(UTC+00:00)

Hubble Space Telescope - Pass Details

Date: 26 April 2026
Orbit: 473 x 476 km, 28.5° (Epoch: 11 May)

Event Time Altitude Azimuth Distance (km) Brightness Sun altitude
Rises 01:17:18 0° 233° (SW) 2,506 4.5 -14.7°
Reaches altitude 10° 01:20:25 10° 205° (SSW) 1,630 3.1 -15.2°
Enters shadow 01:21:52 13° 183° (S) 1,449 2.7 -15.5°
